Location: Murphys Corner
(39.1062°N, 77.8244°W)
Time: 19:48:12
(UTC+00:00)

Envisat - Pass Details

Date: 11 February 2023
Orbit: 763 x 765 km, 98.2° (Epoch: 24 March)

Event Time Altitude Azimuth Distance (km) Brightness Sun altitude
Rises 09:05:39 0° 15° (NNE) 3,238 6.5 -35.8°
Reaches altitude 10° 09:07:58 10° 17° (NNE) 2,308 5.7 -35.3°
Enters shadow 09:08:52 15° 19° (NNE) 1,955 5.3 -35.2°
